Time,TemperatureF,DewpointF,PressureIn,WindDirection,WindDirectionDegrees,WindSpeedMPH,WindSpeedGustMPH,Humidity,HourlyPrecipIn,Conditions,Clouds,dailyrainin,SoftwareType,DateUTC
2013-06-27 06:03:00,66.7,55.8,30.06,NNE,22,0.0,0.4,68,0.00,,,0.00,,2013-06-27 04:03:00,
2013-06-27 06:08:00,66.6,55.6,30.06,North,0,2.2,2.6,68,0.00,,,0.00,,2013-06-27 04:08:00,
2013-06-27 06:13:00,66.9,55.9,30.06,NNW,337,3.5,3.5,68,0.00,,,0.00,,2013-06-27 04:13:00,
2013-06-27 06:18:00,67.5,56.5,30.06,NNW,337,3.1,3.5,68,0.00,,,0.00,,2013-06-27 04:18:00,
2013-06-27 06:23:00,67.5,56.5,30.06,NNW,337,0.8,0.0,68,0.00,,,0.00,,2013-06-27 04:23:00,
2013-06-27 06:28:00,67.3,56.3,30.06,North,0,0.0,1.3,68,0.00,,,0.00,,2013-06-27 04:28:00,
2013-06-27 06:33:00,67.8,56.8,30.06,NNW,337,1.3,3.1,68,0.00,,,0.00,,2013-06-27 04:33:00,
2013-06-27 06:38:00,71.2,59.2,30.06,North,0,1.3,3.1,66,0.00,,,0.00,,2013-06-27 04:38:00,
2013-06-27 06:43:00,71.4,59.0,30.06,North,0,1.7,2.2,65,0.00,,,0.00,,2013-06-27 04:43:00,
2013-06-27 06:48:00,73.6,60.6,30.06,North,0,1.3,1.7,64,0.00,,,0.00,,2013-06-27 04:48:00,
2013-06-27 06:53:00,76.3,62.6,30.06,North,0,0.4,1.7,63,0.00,,,0.00,,2013-06-27 04:53:00,
2013-06-27 06:58:00,76.3,62.6,30.06,North,0,1.7,1.7,63,0.00,,,0.00,,2013-06-27 04:58:00,
2013-06-27 07:03:00,75.9,62.2,30.06,North,0,1.7,2.2,63,0.00,,,0.00,,2013-06-27 05:03:00,
2013-06-27 07:08:00,78.3,64.0,30.06,North,0,0.0,0.0,62,0.00,,,0.00,,2013-06-27 05:08:00,
2013-06-27 07:13:00,77.5,63.3,30.06,North,0,0.0,0.0,62,0.00,,,0.00,,2013-06-27 05:13:00,
2013-06-27 07:18:00,76.8,62.8,30.06,East,90,0.0,0.0,62,0.00,,,0.00,,2013-06-27 05:18:00,
2013-06-27 07:23:00,78.6,64.0,30.06,West,270,0.4,0.8,61,0.00,,,0.00,,2013-06-27 05:23:00,
2013-06-27 07:28:00,80.8,66.0,30.06,WNW,292,0.0,0.4,61,0.00,,,0.00,,2013-06-27 05:28:00,
2013-06-27 07:33:00,79.3,64.6,30.06,North,0,0.0,0.8,61,0.00,,,0.00,,2013-06-27 05:33:00,
2013-06-27 07:38:00,71.1,61.2,30.06,East,90,0.0,0.0,71,0.00,,,0.00,,2013-06-27 05:38:00,
2013-06-27 07:43:00,72.3,62.2,30.06,East,90,0.0,0.0,71,0.00,,,0.00,,2013-06-27 05:43:00,
2013-06-27 07:48:00,72.3,62.2,30.06,East,90,0.0,0.0,71,0.00,,,0.00,,2013-06-27 05:48:00,
2013-06-27 07:53:00,72.3,62.2,30.06,SSE,157,0.0,0.4,71,0.00,,,0.00,,2013-06-27 05:53:00,
2013-06-27 07:58:00,73.9,63.5,30.06,South,180,0.0,0.0,70,0.00,,,0.00,,2013-06-27 05:58:00,
2013-06-27 08:03:00,73.9,63.5,30.06,South,180,0.0,0.0,70,0.00,,,0.00,,2013-06-27 06:03:00,
2013-06-27 08:08:00,73.9,63.5,30.06,SSE,157,0.0,0.0,70,0.00,,,0.00,,2013-06-27 06:08:00,
2013-06-27 08:13:00,73.9,63.5,30.06,SSE,157,1.3,1.7,70,0.00,,,0.00,,2013-06-27 06:13:00,
2013-06-27 08:18:00,73.9,63.5,30.06,NNE,22,1.3,1.7,70,0.00,,,0.00,,2013-06-27 06:18:00,
2013-06-27 08:23:00,73.9,63.5,30.06,ENE,67,0.4,1.7,70,0.00,,,0.00,,2013-06-27 06:23:00,
2013-06-27 08:28:00,73.9,63.5,30.06,North,0,0.4,1.3,70,0.00,,,0.00,,2013-06-27 06:28:00,
2013-06-27 08:33:00,75.9,64.0,30.06,South,180,0.4,0.0,67,0.00,,,0.00,,2013-06-27 06:33:00,
2013-06-27 08:38:00,76.3,64.4,30.06,ENE,67,0.4,0.8,67,0.00,,,0.00,,2013-06-27 06:38:00,
2013-06-27 08:43:00,76.3,64.4,30.06,ENE,67,0.8,0.8,67,0.00,,,0.00,,2013-06-27 06:43:00,
2013-06-27 08:48:00,76.3,64.4,30.06,SSE,157,2.6,2.6,67,0.00,,,0.00,,2013-06-27 06:48:00,
2013-06-27 08:53:00,76.3,64.4,30.06,SSE,157,0.8,0.8,67,0.00,,,0.00,,2013-06-27 06:53:00,
2013-06-27 08:58:00,81.7,67.8,30.06,South,180,1.3,0.0,63,0.00,,,0.00,,2013-06-27 06:58:00,
2013-06-27 09:03:00,81.7,67.8,30.06,South,180,1.3,2.2,63,0.00,,,0.00,,2013-06-27 07:03:00,
2013-06-27 09:08:00,81.7,67.8,30.06,South,180,2.2,3.1,63,0.00,,,0.00,,2013-06-27 07:08:00,
2013-06-27 09:13:00,81.7,67.8,30.06,SSE,157,3.1,4.0,63,0.00,,,0.00,,2013-06-27 07:13:00,
2013-06-27 09:18:00,81.7,67.8,30.06,SSE,157,3.5,3.5,63,0.00,,,0.00,,2013-06-27 07:18:00,
2013-06-27 09:23:00,81.7,67.8,30.06,SW,225,0.0,0.0,63,0.00,,,0.00,,2013-06-27 07:23:00,
2013-06-27 09:28:00,79.3,66.0,30.06,South,180,0.4,0.4,64,0.00,,,0.00,,2013-06-27 07:28:00,
2013-06-27 09:33:00,78.1,64.8,30.06,South,180,0.8,4.0,64,0.00,,,0.00,,2013-06-27 07:33:00,
2013-06-27 09:38:00,78.1,64.8,30.06,South,180,2.2,4.0,64,0.00,,,0.00,,2013-06-27 07:38:00,
2013-06-27 09:43:00,78.1,64.8,30.06,South,180,2.2,2.2,64,0.00,,,0.00,,2013-06-27 07:43:00,
2013-06-27 09:48:00,78.1,64.8,30.06,SSE,157,0.4,0.4,64,0.00,,,0.00,,2013-06-27 07:48:00,
2013-06-27 09:53:00,78.1,64.8,30.06,South,180,0.4,0.8,64,0.00,,,0.00,,2013-06-27 07:53:00,
2013-06-27 09:58:00,78.1,64.8,30.06,South,180,0.8,1.3,64,0.00,,,0.00,,2013-06-27 07:58:00,
2013-06-27 10:03:00,78.1,64.8,30.06,South,180,1.3,2.2,64,0.00,,,0.00,,2013-06-27 08:03:00,
2013-06-27 10:08:00,78.1,64.8,30.06,South,180,0.4,0.0,64,0.00,,,0.00,,2013-06-27 08:08:00,
2013-06-27 10:13:00,84.4,70.3,30.06,South,180,0.8,0.8,63,0.00,,,0.00,,2013-06-27 08:13:00,
2013-06-27 10:18:00,84.4,70.3,30.06,SE,135,0.0,0.0,63,0.00,,,0.00,,2013-06-27 08:18:00,
2013-06-27 10:23:00,84.4,70.3,30.06,SSW,202,0.4,1.3,63,0.00,,,0.00,,2013-06-27 08:23:00,
2013-06-27 10:28:00,84.6,70.5,30.06,South,180,0.4,1.7,63,0.00,,,0.00,,2013-06-27 08:28:00,
2013-06-27 10:33:00,83.7,70.2,30.06,South,180,0.0,0.0,64,0.00,,,0.00,,2013-06-27 08:33:00,
2013-06-27 10:38:00,86.4,72.1,30.06,South,180,0.4,0.4,63,0.00,,,0.00,,2013-06-27 08:38:00,
2013-06-27 10:43:00,84.4,70.7,30.06,SSE,157,0.4,1.3,64,0.00,,,0.00,,2013-06-27 08:43:00,
2013-06-27 10:48:00,84.9,71.2,30.06,SSE,157,0.4,0.8,64,0.00,,,0.00,,2013-06-27 08:48:00,
2013-06-27 10:53:00,84.9,71.2,30.06,SSE,157,0.4,1.3,64,0.00,,,0.00,,2013-06-27 08:53:00,
2013-06-27 10:58:00,84.6,70.9,30.06,East,90,0.0,1.3,64,0.00,,,0.00,,2013-06-27 08:58:00,
2013-06-27 11:03:00,84.4,70.7,30.06,South,180,0.4,1.3,64,0.00,,,0.00,,2013-06-27 09:03:00,
2013-06-27 11:08:00,84.4,70.7,30.06,South,180,0.0,1.3,64,0.00,,,0.00,,2013-06-27 09:08:00,
2013-06-27 11:13:00,84.7,71.1,30.06,South,180,0.4,1.3,64,0.00,,,0.00,,2013-06-27 09:13:00,
2013-06-27 11:18:00,85.3,71.6,30.06,SSW,202,0.0,0.0,64,0.00,,,0.00,,2013-06-27 09:18:00,
2013-06-27 11:23:00,85.3,71.6,30.06,South,180,1.7,2.2,64,0.00,,,0.00,,2013-06-27 09:23:00,
2013-06-27 11:28:00,85.3,71.6,30.06,SSW,202,1.3,3.1,64,0.00,,,0.00,,2013-06-27 09:28:00,
2013-06-27 11:33:00,85.3,71.6,30.06,South,180,0.8,2.6,64,0.00,,,0.00,,2013-06-27 09:33:00,
2013-06-27 11:38:00,85.3,71.6,30.06,SSE,157,1.3,1.3,64,0.00,,,0.00,,2013-06-27 09:38:00,
2013-06-27 11:43:00,85.3,71.6,30.06,SSW,202,0.0,0.4,64,0.00,,,0.00,,2013-06-27 09:43:00,
2013-06-27 11:48:00,85.3,71.6,30.06,South,180,1.7,3.5,64,0.00,,,0.00,,2013-06-27 09:48:00,
2013-06-27 11:53:00,85.3,71.6,30.06,South,180,0.8,1.3,64,0.00,,,0.00,,2013-06-27 09:53:00,
2013-06-27 11:58:00,85.3,71.6,30.06,South,180,2.2,2.2,64,0.00,,,0.00,,2013-06-27 09:58:00,
2013-06-27 12:03:00,85.3,71.6,30.06,SE,135,0.8,1.3,64,0.00,,,0.00,,2013-06-27 10:03:00,
2013-06-27 12:08:00,85.3,71.6,30.06,South,180,1.3,2.6,64,0.00,,,0.00,,2013-06-27 10:08:00,
2013-06-27 12:13:00,84.7,72.0,30.06,SW,225,0.8,2.2,66,0.00,,,0.00,,2013-06-27 10:13:00,
2013-06-27 12:18:00,84.7,72.0,30.06,SSE,157,0.4,0.4,66,0.00,,,0.00,,2013-06-27 10:18:00,
2013-06-27 12:23:00,85.6,72.9,30.06,SSE,157,0.0,1.3,66,0.00,,,0.00,,2013-06-27 10:23:00,
2013-06-27 12:28:00,84.9,72.1,30.06,South,180,0.4,2.2,66,0.00,,,0.00,,2013-06-27 10:28:00,
2013-06-27 12:33:00,84.7,72.0,30.09,SSE,157,0.8,0.0,66,0.00,,,0.00,,2013-06-27 10:33:00,
2013-06-27 12:38:00,84.9,72.1,30.09,SSE,157,1.3,1.3,66,0.00,,,0.00,,2013-06-27 10:38:00,
2013-06-27 12:43:00,84.6,72.3,30.06,SSW,202,0.4,1.3,67,0.00,,,0.00,,2013-06-27 10:43:00,
2013-06-27 12:48:00,84.4,72.1,30.06,South,180,0.0,0.0,67,0.00,,,0.00,,2013-06-27 10:48:00,
2013-06-27 12:53:00,84.7,72.5,30.06,South,180,0.0,0.4,67,0.00,,,0.00,,2013-06-27 10:53:00,
2013-06-27 12:58:00,82.6,70.3,30.06,SSW,202,0.8,3.1,67,0.00,,,0.00,,2013-06-27 10:58:00,
2013-06-27 13:03:00,82.0,70.3,30.06,South,180,1.3,2.2,68,0.00,,,0.00,,2013-06-27 11:03:00,
2013-06-27 13:08:00,81.1,69.4,30.06,SSW,202,1.3,1.7,68,0.00,,,0.00,,2013-06-27 11:08:00,
2013-06-27 13:13:00,81.1,69.4,30.06,South,180,0.4,2.6,68,0.00,,,0.00,,2013-06-27 11:13:00,
2013-06-27 13:18:00,80.2,68.5,30.06,SW,225,0.8,1.7,68,0.00,,,0.00,,2013-06-27 11:18:00,
2013-06-27 13:23:00,79.9,68.4,30.06,SSE,157,0.8,2.6,68,0.00,,,0.00,,2013-06-27 11:23:00,
2013-06-27 13:28:00,79.3,67.8,30.06,SSW,202,0.4,2.2,68,0.00,,,0.00,,2013-06-27 11:28:00,
2013-06-27 13:33:00,79.7,68.5,30.06,SSW,202,0.4,1.3,69,0.00,,,0.00,,2013-06-27 11:33:00,
2013-06-27 13:38:00,79.5,68.4,30.06,SSW,202,0.8,1.3,69,0.00,,,0.00,,2013-06-27 11:38:00,
2013-06-27 13:43:00,79.9,68.7,30.06,SSW,202,0.4,0.4,69,0.00,,,0.00,,2013-06-27 11:43:00,
2013-06-27 13:48:00,80.1,68.9,30.06,West,270,0.4,0.8,69,0.00,,,0.00,,2013-06-27 11:48:00,
2013-06-27 13:53:00,80.1,68.9,30.06,SSW,202,0.4,0.8,69,0.00,,,0.00,,2013-06-27 11:53:00,
2013-06-27 13:58:00,80.1,68.9,30.06,WSW,247,0.8,0.8,69,0.00,,,0.00,,2013-06-27 11:58:00,
2013-06-27 14:03:00,80.1,68.9,30.06,SW,225,0.8,0.0,69,0.00,,,0.00,,2013-06-27 12:03:00,
2013-06-27 14:08:00,80.1,68.9,30.06,South,180,0.4,0.8,69,0.00,,,0.00,,2013-06-27 12:08:00,
2013-06-27 14:13:00,80.1,68.9,30.06,SSE,157,0.4,0.4,69,0.00,,,0.00,,2013-06-27 12:13:00,
2013-06-27 14:18:00,80.1,68.9,30.06,SSW,202,0.8,0.8,69,0.00,,,0.00,,2013-06-27 12:18:00,
2013-06-27 14:23:00,80.1,68.9,30.06,SSE,157,0.4,0.8,69,0.00,,,0.00,,2013-06-27 12:23:00,
2013-06-27 14:28:00,80.6,68.9,30.06,SW,225,0.4,0.8,68,0.00,,,0.00,,2013-06-27 12:28:00,
2013-06-27 14:33:00,80.8,69.1,30.06,WSW,247,0.4,1.7,68,0.00,,,0.00,,2013-06-27 12:33:00,
2013-06-27 14:38:00,81.7,70.0,30.06,South,180,0.4,2.2,68,0.00,,,0.00,,2013-06-27 12:38:00,
2013-06-27 14:43:00,81.9,69.8,30.06,SE,135,0.4,0.8,67,0.00,,,0.00,,2013-06-27 12:43:00,
2013-06-27 14:48:00,81.5,69.4,30.06,SW,225,0.4,0.8,67,0.00,,,0.00,,2013-06-27 12:48:00,
2013-06-27 14:53:00,81.3,69.3,30.06,SSE,157,0.4,1.3,67,0.00,,,0.00,,2013-06-27 12:53:00,
2013-06-27 14:58:00,81.3,69.3,30.06,South,180,0.4,1.7,67,0.00,,,0.00,,2013-06-27 12:58:00,
2013-06-27 15:03:00,81.1,69.1,30.06,SE,135,0.8,3.1,67,0.00,,,0.00,,2013-06-27 13:03:00,
2013-06-27 15:08:00,81.3,69.3,30.06,South,180,1.3,3.5,67,0.00,,,0.00,,2013-06-27 13:08:00,
2013-06-27 15:13:00,81.1,69.1,30.06,SE,135,1.3,4.4,67,0.00,,,0.00,,2013-06-27 13:13:00,
2013-06-27 15:18:00,81.3,69.3,30.06,SSE,157,0.4,0.4,67,0.00,,,0.00,,2013-06-27 13:18:00,
2013-06-27 15:23:00,81.1,69.1,30.06,SE,135,0.8,0.8,67,0.00,,,0.00,,2013-06-27 13:23:00,
2013-06-27 15:28:00,81.1,69.1,30.06,SE,135,0.4,0.8,67,0.00,,,0.00,,2013-06-27 13:28:00,
2013-06-27 15:33:00,81.3,69.3,30.06,South,180,0.4,1.3,67,0.00,,,0.00,,2013-06-27 13:33:00,
2013-06-27 15:38:00,81.1,69.1,30.06,SE,135,0.4,2.6,67,0.00,,,0.00,,2013-06-27 13:38:00,
2013-06-27 15:43:00,81.0,68.9,30.06,South,180,0.8,1.3,67,0.00,,,0.00,,2013-06-27 13:43:00,
2013-06-27 15:48:00,81.0,68.9,30.06,SSW,202,0.8,2.2,67,0.00,,,0.00,,2013-06-27 13:48:00,
2013-06-27 15:53:00,81.0,68.9,30.06,SSE,157,0.4,0.4,67,0.00,,,0.00,,2013-06-27 13:53:00,
2013-06-27 15:58:00,81.0,68.9,30.06,South,180,0.4,0.4,67,0.00,,,0.00,,2013-06-27 13:58:00,
2013-06-27 16:03:00,81.0,68.9,30.06,SSE,157,0.4,0.8,67,0.00,,,0.00,,2013-06-27 14:03:00,
2013-06-27 16:08:00,81.0,68.9,30.06,SW,225,0.8,1.7,67,0.00,,,0.00,,2013-06-27 14:08:00,
2013-06-27 16:13:00,79.7,68.2,30.06,SW,225,0.8,0.0,68,0.00,,,0.00,,2013-06-27 14:13:00,
2013-06-27 16:18:00,80.4,68.4,30.06,SW,225,0.0,0.8,67,0.00,,,0.00,,2013-06-27 14:18:00,
2013-06-27 16:23:00,79.5,68.0,30.03,SW,225,1.3,1.3,68,0.00,,,0.00,,2013-06-27 14:23:00,
2013-06-27 16:28:00,80.4,68.7,30.03,SE,135,0.4,1.3,68,0.00,,,0.00,,2013-06-27 14:28:00,
2013-06-27 16:33:00,79.9,68.4,30.03,East,90,0.8,1.3,68,0.00,,,0.00,,2013-06-27 14:33:00,
2013-06-27 16:38:00,80.1,68.5,30.03,West,270,0.8,2.2,68,0.00,,,0.00,,2013-06-27 14:38:00,
2013-06-27 16:43:00,78.6,67.1,30.03,West,270,2.2,2.2,68,0.00,,,0.00,,2013-06-27 14:43:00,
2013-06-27 16:48:00,79.3,67.8,30.03,West,270,0.8,1.7,68,0.00,,,0.00,,2013-06-27 14:48:00,
2013-06-27 16:53:00,77.9,66.4,30.03,West,270,4.9,8.5,68,0.00,,,0.00,,2013-06-27 14:53:00,
2013-06-27 16:58:00,79.5,67.5,30.03,West,270,0.4,1.3,67,0.00,,,0.00,,2013-06-27 14:58:00,
2013-06-27 17:03:00,78.3,66.7,30.06,West,270,1.7,1.7,68,0.00,,,0.00,,2013-06-27 15:03:00,
2013-06-27 17:08:00,77.5,66.0,30.06,WSW,247,3.1,10.7,68,0.00,,,0.00,,2013-06-27 15:08:00,
2013-06-27 17:13:00,78.3,66.7,30.06,SSW,202,0.8,0.8,68,0.00,,,0.00,,2013-06-27 15:13:00,
2013-06-27 17:18:00,77.4,65.8,30.06,WSW,247,2.6,4.4,68,0.00,,,0.00,,2013-06-27 15:18:00,
2013-06-27 17:23:00,75.7,64.4,30.03,WNW,292,9.8,12.0,68,0.00,,,0.00,,2013-06-27 15:23:00,
2013-06-27 17:28:00,76.8,65.3,30.03,WNW,292,5.3,9.3,68,0.00,,,0.00,,2013-06-27 15:28:00,
2013-06-27 17:33:00,76.5,64.9,30.06,NW,315,6.7,9.8,68,0.00,,,0.00,,2013-06-27 15:33:00,
2013-06-27 17:38:00,75.7,64.4,30.06,West,270,6.7,6.7,68,0.00,,,0.00,,2013-06-27 15:38:00,
2013-06-27 17:43:00,75.9,64.6,30.06,West,270,3.5,3.5,68,0.00,,,0.00,,2013-06-27 15:43:00,
2013-06-27 17:48:00,76.3,64.8,30.06,West,270,2.6,2.6,68,0.00,,,0.00,,2013-06-27 15:48:00,
2013-06-27 17:53:00,76.1,64.8,30.06,NW,315,3.5,4.9,68,0.00,,,0.00,,2013-06-27 15:53:00,
2013-06-27 17:58:00,75.6,64.2,30.06,WNW,292,5.8,8.0,68,0.00,,,0.00,,2013-06-27 15:58:00,
2013-06-27 18:03:00,75.7,64.4,30.03,WNW,292,4.0,4.0,68,0.00,,,0.00,,2013-06-27 16:03:00,
2013-06-27 18:08:00,75.6,64.2,30.03,West,270,3.1,4.4,68,0.00,,,0.00,,2013-06-27 16:08:00,
2013-06-27 18:13:00,75.6,64.2,30.03,WSW,247,0.8,0.0,68,0.00,,,0.00,,2013-06-27 16:13:00,
2013-06-27 18:18:00,75.7,64.4,30.03,WNW,292,6.7,10.7,68,0.00,,,0.00,,2013-06-27 16:18:00,
2013-06-27 18:23:00,75.6,64.2,30.03,West,270,3.1,3.1,68,0.00,,,0.00,,2013-06-27 16:23:00,
2013-06-27 18:28:00,75.6,64.2,30.03,West,270,0.8,0.0,68,0.00,,,0.00,,2013-06-27 16:28:00,
2013-06-27 18:33:00,76.1,64.8,30.03,West,270,2.6,2.6,68,0.00,,,0.00,,2013-06-27 16:33:00,
2013-06-27 18:43:00,74.7,63.7,30.03,West,270,2.6,4.9,69,0.00,,,0.00,,2013-06-27 16:43:00,
2013-06-27 18:48:00,74.5,63.5,30.03,West,270,2.6,5.3,69,0.00,,,0.00,,2013-06-27 16:48:00,
2013-06-27 18:53:00,74.5,63.5,30.06,West,270,2.6,5.3,69,0.00,,,0.00,,2013-06-27 16:53:00,
2013-06-27 18:58:00,74.7,63.7,30.06,NW,315,2.2,5.3,69,0.00,,,0.00,,2013-06-27 16:58:00,
2013-06-27 19:03:00,74.1,63.1,30.06,North,0,2.2,2.6,69,0.00,,,0.00,,2013-06-27 17:03:00,
2013-06-27 19:08:00,74.1,63.1,30.06,NW,315,4.0,4.0,69,0.00,,,0.00,,2013-06-27 17:08:00,
2013-06-27 19:13:00,74.1,63.1,30.06,West,270,2.2,2.2,69,0.00,,,0.00,,2013-06-27 17:13:00,
2013-06-27 19:18:00,74.1,63.1,30.06,WSW,247,1.3,4.4,69,0.00,,,0.00,,2013-06-27 17:18:00,
2013-06-27 19:23:00,74.1,63.1,30.06,West,270,3.1,3.1,69,0.00,,,0.00,,2013-06-27 17:23:00,
2013-06-27 19:28:00,73.6,63.1,30.06,West,270,2.6,3.1,70,0.00,,,0.00,,2013-06-27 17:28:00,
2013-06-27 19:33:00,73.8,63.3,30.06,WNW,292,0.4,0.0,70,0.00,,,0.00,,2013-06-27 17:33:00,
2013-06-27 19:43:00,73.2,62.8,30.06,NW,315,1.7,1.7,70,0.00,,,0.00,,2013-06-27 17:43:00,
2013-06-27 19:48:00,72.9,62.4,30.06,West,270,1.7,1.7,70,0.00,,,0.00,,2013-06-27 17:48:00,
2013-06-27 19:53:00,73.0,62.6,30.06,West,270,0.4,1.7,70,0.00,,,0.00,,2013-06-27 17:53:00,
2013-06-27 20:03:00,72.3,62.2,30.06,WNW,292,2.2,5.3,71,0.00,,,0.00,,2013-06-27 18:03:00,
2013-06-27 20:08:00,72.0,61.9,30.06,West,270,5.3,5.3,71,0.00,,,0.00,,2013-06-27 18:08:00,
2013-06-27 20:13:00,71.4,61.5,30.06,West,270,3.1,3.1,71,0.00,,,0.00,,2013-06-27 18:13:00,
2013-06-27 20:18:00,71.2,61.3,30.06,West,270,3.5,4.9,71,0.00,,,0.00,,2013-06-27 18:18:00,
2013-06-27 20:23:00,71.2,61.3,30.06,West,270,2.2,2.2,71,0.00,,,0.00,,2013-06-27 18:23:00,
2013-06-27 20:28:00,71.1,61.5,30.06,West,270,1.3,1.3,72,0.00,,,0.00,,2013-06-27 18:28:00,
2013-06-27 20:33:00,71.1,61.5,30.06,NW,315,2.2,4.4,72,0.00,,,0.00,,2013-06-27 18:33:00,
2013-06-27 20:38:00,70.9,61.3,30.06,West,270,1.3,2.2,72,0.00,,,0.00,,2013-06-27 18:38:00,
2013-06-27 20:43:00,70.9,61.3,30.06,WNW,292,0.8,1.3,72,0.00,,,0.00,,2013-06-27 18:43:00,
2013-06-27 20:48:00,70.5,61.0,30.06,NW,315,0.0,0.0,72,0.00,,,0.00,,2013-06-27 18:48:00,
2013-06-27 20:53:00,70.3,60.8,30.06,NW,315,0.8,1.7,72,0.00,,,0.00,,2013-06-27 18:53:00,
2013-06-27 20:58:00,70.3,60.8,30.06,NW,315,0.4,1.3,72,0.00,,,0.00,,2013-06-27 18:58:00,
2013-06-27 21:03:00,70.3,61.2,30.06,NW,315,0.4,0.8,73,0.00,,,0.00,,2013-06-27 19:03:00,
2013-06-27 21:08:00,70.2,61.0,30.06,West,270,0.8,1.3,73,0.00,,,0.00,,2013-06-27 19:08:00,
2013-06-27 21:13:00,70.0,60.8,30.06,WNW,292,1.7,2.6,73,0.00,,,0.00,,2013-06-27 19:13:00,
2013-06-27 21:18:00,70.0,60.8,30.06,NW,315,2.2,2.2,73,0.00,,,0.00,,2013-06-27 19:18:00,
2013-06-27 21:23:00,70.0,60.8,30.06,NE,45,0.0,0.0,73,0.00,,,0.00,,2013-06-27 19:23:00,
2013-06-27 21:28:00,69.8,60.6,30.06,North,0,0.8,2.6,73,0.00,,,0.00,,2013-06-27 19:28:00,
2013-06-27 21:33:00,69.6,60.4,30.06,NNW,337,1.7,2.6,73,0.00,,,0.00,,2013-06-27 19:33:00,
2013-06-27 21:38:00,69.6,60.4,30.06,NW,315,0.8,0.0,73,0.00,,,0.00,,2013-06-27 19:38:00,
2013-06-27 21:43:00,69.6,60.4,30.06,NNW,337,2.6,2.6,73,0.00,,,0.00,,2013-06-27 19:43:00,
2013-06-27 21:48:00,69.6,60.4,30.06,NNW,337,1.3,2.6,73,0.00,,,0.00,,2013-06-27 19:48:00,
2013-06-27 21:53:00,69.6,60.4,30.06,NW,315,0.0,0.0,73,0.00,,,0.00,,2013-06-27 19:53:00,
2013-06-27 21:58:00,69.3,60.4,30.06,North,0,0.8,1.3,74,0.00,,,0.00,,2013-06-27 19:58:00,
2013-06-27 22:03:00,69.3,60.4,30.06,North,0,1.3,2.2,74,0.00,,,0.00,,2013-06-27 20:03:00,
2013-06-27 22:08:00,69.3,60.4,30.06,North,0,1.3,1.7,74,0.00,,,0.00,,2013-06-27 20:08:00,
2013-06-27 22:13:00,69.3,60.4,30.06,North,0,0.8,1.7,74,0.00,,,0.00,,2013-06-27 20:13:00,
2013-06-27 22:18:00,69.3,60.4,30.06,NNW,337,0.4,1.7,74,0.00,,,0.00,,2013-06-27 20:18:00,
2013-06-27 22:23:00,69.3,60.4,30.06,NW,315,0.4,0.0,74,0.00,,,0.00,,2013-06-27 20:23:00,
2013-06-27 22:28:00,69.3,60.4,30.06,NW,315,0.0,0.0,74,0.00,,,0.00,,2013-06-27 20:28:00,
2013-06-27 22:33:00,69.3,60.4,30.06,NW,315,0.0,0.0,74,0.00,,,0.00,,2013-06-27 20:33:00,
2013-06-27 22:40:00,69.3,60.4,30.06,NW,315,0.0,0.0,74,0.00,,,0.00,,2013-06-27 20:40:00,
2013-06-27 22:49:00,69.3,60.4,30.06,NW,315,0.0,0.0,74,0.00,,,0.00,,2013-06-27 20:49:00,
2013-06-27 22:58:00,68.7,60.4,30.06,North,0,0.0,0.0,75,0.00,,,0.00,,2013-06-27 20:58:00,
2013-06-27 23:03:00,68.7,60.4,30.06,North,0,0.0,0.0,75,0.00,,,0.00,,2013-06-27 21:03:00,
2013-06-27 23:08:00,68.7,60.4,30.06,NW,315,0.0,0.8,75,0.00,,,0.00,,2013-06-27 21:08:00,
2013-06-27 23:13:00,68.7,60.4,30.06,NE,45,0.4,0.0,75,0.00,,,0.00,,2013-06-27 21:13:00,
2013-06-27 23:19:00,68.4,60.1,30.06,North,0,0.0,0.0,75,0.00,,,0.00,,2013-06-27 21:19:00,
2013-06-27 23:28:00,68.4,60.1,30.06,NW,315,0.0,0.0,75,0.00,,,0.00,,2013-06-27 21:28:00,
2013-06-27 23:34:00,68.4,60.1,30.06,NW,315,0.0,0.0,75,0.00,,,0.00,,2013-06-27 21:34:00,
2013-06-27 23:43:00,68.4,60.1,30.06,NW,315,0.0,0.0,75,0.00,,,0.00,,2013-06-27 21:43:00,
2013-06-27 23:49:00,68.4,60.1,30.06,NW,315,0.0,0.0,75,0.00,,,0.00,,2013-06-27 21:49:00,
2013-06-27 23:58:00,67.6,59.7,30.06,NNW,337,0.4,1.3,76,0.00,,,0.00,,2013-06-27 21:58:00,